Miscellaneous Local Product
Issued by NWS Hastings, NE

Home | Current Version | Previous Version | Text Only | Print | Product List | Glossary On
Versions: 1 2 3 4 5 6 7 8 9 10 11 12 13 14 15 16 17 18 19 20 21 22 23 24 25 26 27 28 29 30 31 32 33 34 35 36 37 38 39 40 41 42 43 44 45 46 47 48 49 50
524
AXUS43 KGID 251402
MISGRI

GID CWA HOURLY WEATHER ROUNDUP
NATIONAL WEATHER SERVICE HASTINGS NE
900 AM CDT SUN JUN 25 2017

NOTE: "FAIR" INDICATES FEW OR NO CLOUDS BELOW 12,000 FEET WITH NO
SIGNIFICANT WEATHER AND/OR OBSTRUCTIONS TO VISIBILITY.

...SOUTH CENTRAL NEBRASKA...

CITY           SKY/WX    TMP DP  RH WIND       PRES   REMARKS
GRAND ISLAND   CLOUDY    58  45  62 CALM      30.38R
HASTINGS       CLOUDY    58  44  60 NE3       30.38R
KEARNEY        CLOUDY    55  45  67 CALM      30.39R
ORD            MOSUNNY   60  43  53 SW3       30.36R
YORK           CLOUDY    61  45  55 CALM      30.36S
AURORA         MOSUNNY   59  45  59 CALM      30.37S
LEXINGTON      CLOUDY    57  44  63 NE3       30.40R
HOLDREGE       CLOUDY    56  45  65 NE3       30.39R
HEBRON         CLOUDY    60  46  58 NE5       30.36R

...NEBRASKA PANHANDLE...

CITY           SKY/WX    TMP DP  RH WIND       PRES   REMARKS
CHADRON        SUNNY     61  39  44 S7        30.35S
ALLIANCE       CLOUDY    56  40  55 SE7       30.36S
SCOTTSBLUFF    CLOUDY    61  36  39 SE9       30.37S
SIDNEY         CLOUDY    58  33  39 E18       30.39R

...WESTERN AND NORTH CENTRAL NEBRASKA...

CITY           SKY/WX    TMP DP  RH WIND       PRES   REMARKS
VALENTINE      MOSUNNY   61  37  41 VRB3      30.37S
AINSWORTH      SUNNY     61  42  50 NW3       30.37S
ONEILL         SUNNY     60  45  56 NW7       30.36S
BROKEN BOW     CLOUDY    59  42  53 CALM      30.37R
IMPERIAL       LGT RAIN  52  44  74 SE10      30.39R
NORTH PLATTE   LGT RAIN  55  50  83 SE5       30.39R
MCCOOK         CLOUDY    55  44  66 E7        30.39R

...EASTERN NEBRASKA...

CITY           SKY/WX    TMP DP  RH WIND       PRES   REMARKS
NORFOLK        SUNNY     60  44  55 W7        30.33R
SO SIOUX CITY  SUNNY     60  47  61 NW13      30.31S
TEKAMAH        SUNNY     63  44  50 NW16      30.32R
COLUMBUS       SUNNY     62  44  51 MISG      30.36R
ALBION         SUNNY     62  43  49 CALM      30.36S
OMAHA EPPLEY   MOSUNNY   64  45  49 N12       30.32R
OFFUTT AFB     SUNNY     65  41  42 NW10      30.31R
MILLARD        MOSUNNY   66  43  43 NW9G17    30.32R
LINCOLN        MOSUNNY   64  44  48 NW6       30.35R
NEBRASKA CITY  MOSUNNY   63  47  57 NW7       30.33R
BEATRICE       CLOUDY    61  49  62 N3        30.34F
FALLS CITY     SUNNY     65  48  54 N8        30.32R

...NORTHERN KANSAS...

CITY           SKY/WX    TMP DP  RH WIND       PRES   REMARKS
GOODLAND       CLOUDY    57  55  93 MISG      30.35R
HILL CITY      PTSUNNY   64  56  75 NE10      30.36R
NORTON         CLOUDY    55  43  62 NE9G16    30.36R
PHILLIPSBURG   CLOUDY    61  46  59 NE7       30.36S
SMITH CENTER   SUNNY     59  45  58 E7        30.37R
HAYS           CLOUDY    61  55  81 NE10      30.33R
RUSSELL        LGT RAIN  61  55  81 N9        30.31R
CONCORDIA      CLOUDY    63  47  55 E6        30.33R
SALINA         LGT RAIN  67  59  75 NW9       30.33R
TOPEKA         SUNNY     69  52  54 N9        30.31R



USA.gov is the U.S. government's official web portal to all federal, state and local government web resources and services.